Location: Strawberry
(45.6646°N, 111.9596°W)
Time: 01:51:02
(UTC+00:00)

Vanguard 1 Rocket - Pass Details

Date: 01 October 2022
Orbit: 650 x 4225 km, 34.3° (Epoch: 05 December)

Event Time Altitude Azimuth Distance (km) Brightness Sun altitude
Rises 05:04:33 0° 249° (WSW) 7,418 12.3 -38.5°
Reaches altitude 10° 05:10:32 10° 245° (WSW) 5,852 11.6 -39.3°
Enters shadow 05:20:58 36° 219° (SW) 3,072 9.8 -40.5°
